Погода в Каракше

Россия / Кировская область     57°02′00″N   47°55′36″E
темп.,
°C
ветер,
м/с
пор.,
м/с
влажн.,
%
обл.,
%
осадки,
мм/ч
давл.,
гПа
погр.,
м
14 августа, вс
вс1400:00+14св227549 0.0 102212
03:00+13всв11785 0.0 102310
06:00+15ююз1275100 0.0 102348
09:00+18ююз126996 0.0 1023130
12:00+22з2255100 0.0 1023753
15:00+24зсз23502 0.0 10221381
18:00+21св11696 0.2 102219
21:00+17ссз11816 0.2 102211
15 августа, пн
пн1500:00+15с008527 0.0 102211
03:00+15ссв118743 0.0 102311
06:00+17ссв228333 0.0 102486
09:00+21ссв22580 0.0 1024580
12:00+24ссв33450 0.0 10241485
15:00+24ссв33420 0.0 10241794
18:00+22св23560 0.0 102447
21:00+16всв23580 0.0 102519
16 августа, вт
вт1600:00+14в22700 0.0 102613
03:00+13в22740 0.0 102611
06:00+15в22735 0.0 102768
09:00+21в33535 0.0 1027537
12:00+24в33425 0.0 10261287
15:00+25в334011 0.0 10251538
18:00+22в2257100 0.0 102528
21:00+17вюв226243 0.0 102512
17 августа, ср
ср1700:00+16вюв226676 0.0 102511
03:00+15вюв2268100 0.0 102511
06:00+17вюв2268100 0.0 102537
09:00+21вюв225488 0.0 1024371
12:00+25вюв22437 0.0 10231448
15:00+25в22402 0.0 10231835
18:00+23в225537 0.0 102212
21:00+18в22650 0.0 102211
18 августа, чт
чт1800:00+17в11685 0.0 102311
03:00+16св2271100 0.0 102319
06:00+17всв24750 0.0 1024109
09:00+23всв34590 0.0 1024563
12:00+26всв34505 0.0 10241497
15:00+26всв44467 0.0 10241937
18:00+23в366360 0.0 1024179
21:00+17в410764 0.0 1026208